Regional Weather Roundup
Issued by NWS

Home | Current Version | Previous Version | Text Only | Print | Product List | Glossary On
Versions: 1 2 3 4 5 6 7 8 9 10 11 12 13 14 15 16 17 18 19 20 21 22 23 24 25 26 27 28 29 30 31 32 33 34 35 36 37 38 39 40 41 42 43 44 45 46 47 48 49 50
000
ASUS43 KTOP 210308
RWRKS

WEATHER ROUNDUP FOR KANSAS
NATIONAL WEATHER SERVICE GOODLAND KS
1000 PM CDT SAT SEP 20 2014

NOTE:  "FAIR" INDICATES FEW OR NO CLOUDS BELOW 12,000 FEET WITH NO
SIGNIFICANT WEATHER AND/OR OBSTRUCTIONS TO VISIBILITY.

KSZ001>006-013>018-027>032-041>047-210400-
NORTHWEST KANSAS

CITY           SKY/WX    TMP DP  RH WIND       PRES   REMARKS
GOODLAND       CLEAR     60  52  74 CALM      30.20R HAZE
HILL CITY      CLEAR     66  53  63 N5        30.10R
RUSSELL        CLEAR     70  61  73 NE6       30.05R
$$

KSZ061>065-074>080-084>089-210400-
SOUTHWEST KANSAS

CITY           SKY/WX    TMP DP  RH WIND       PRES   REMARKS
DODGE CITY     CLOUDY    77  64  64 NE12      30.08R
ELKHART          N/A     78  60  53 NE10        N/A
GARDEN CITY    CLEAR     73  62  68 NE13      30.10R
GREAT BEND     PTCLDY    77  66  69 NE8       30.05R
LIBERAL        PTCLDY    81  61  50 NE12      30.09R
PRATT          MOCLDY    75  64  69 NW5       30.06R
$$

KSZ066>073-081>083-090>101-210400-
SOUTHEAST KANSAS

CITY           SKY/WX    TMP DP  RH WIND       PRES   REMARKS
CHANUTE        CLOUDY    77  70  79 S6        30.00R
HUTCHINSON     PTCLDY    71  65  81 CALM      30.04S
MEDICINE LODGE   N/A     83  63  50 S6        30.01R
NEWTON         MOCLDY    70  64  83 NW13      30.01F
PARSONS        CLOUDY    77  70  79 S5        30.01R
WICHITA INTL   MOCLDY    74  69  85 W10       29.98F
WICHITA JABRA  MOCLDY    73  68  84 CALM      29.99F
WICHITA MCCONL MOCLDY    77  68  73 NW2       29.99F HAZE
WINFIELD       MOCLDY    77  66  68 SW8       30.00R
$$

KSZ007>012-019>026-033>040-048>060-102>105-210400-
NORTHEAST KANSAS

CITY           SKY/WX    TMP DP  RH WIND       PRES   REMARKS
CONCORDIA      CLEAR     71  63  75 CALM      30.04R
EMPORIA        CLOUDY    70  66  87 SW5       30.00R
LAWRENCE       CLEAR     66  64  93 N7        29.99R FOG
MANHATTAN      CLEAR     69  67  93 W3        30.01R
MARYSVILLE     CLEAR     68  68 100 CALM      30.02S
OLATHE IND     PTCLDY    72  69  90 NW5       29.99R
OLATHE EXE     CLEAR     74  69  85 NW3       29.98R
SALINA         MOCLDY    74  67  78 S7        30.04R
TOPEKA BILLARD CLEAR     69  68  96 S3        29.99R FOG
TOPEKA FORBES  CLEAR     66  64  93 NW6       30.00R
$$


USA.gov is the U.S. government's official web portal to all federal, state and local government web resources and services.